Regional Weather Roundup
Issued by NWS Charleston, SC

Current Version | Previous Version | Graphics & Text | Print | Product List | Glossary On
Versions: 1 2 3 4 5 6 7 8 9 10 11 12 13 14 15 16 17 18 19 20 21 22 23 24 25 26 27 28 29 30 31 32 33 34 35 36 37 38 39 40 41 42 43 44 45 46 47 48 49 50
018
ASUS42 KCHS 302213
RWRCHS

REGIONAL WEATHER ROUNDUP
NATIONAL WEATHER SERVICE CHARLESTON SC
600 PM EDT SAT APR 30 2016

NOTE: "FAIR" INDICATES FEW OR NO CLOUDS BELOW 12,000 FEET WITH NO
SIGNIFICANT WEATHER AND/OR OBSTRUCTIONS TO VISIBILITY.

NOT ALL STATIONS ARE QUALITY CONTROLLED. USE DATA WITH CAUTION...
ESPECIALLY DEWPOINT OBSERVATIONS.

SCZ027-030-031-034>040-042>050-302300-
...SOUTHEAST SOUTH CAROLINA...

CITY           SKY/WX    TMP DP  RH WIND       PRES   REMARKS
N CHARLESTON   PTSUNNY   79  69  71 S14       30.02R
WATERFRONT PRK   N/A     76  72  87 E10       30.00F
MOUNT PLEASANT FAIR      79  70  73 E8G16     30.03S
JOHNS ISLAND   FAIR      77  72  83 E13       30.02S
PINOPOLIS        N/A     86  68  54 S5        29.92F
MONCKS CORNER  FAIR      77  63  61 SE7       30.02R
SUMMERVILLE    FAIR      82  68  61 SE5       30.02S
BEAUFORT MCAS  MOSUNNY   81  69  67 SE6G16    30.00S
BEAUFORT ARPT  FAIR      79  66  65 SE8       30.00S
HILTON HEAD IS MOSUNNY   77  72  83 SE7       30.01F
WALTERBORO     CLOUDY    82  63  51 SE13      30.01S
ALLENDALE      FAIR      84  59  42 SE13G20   29.98R

...SOUTHERN MIDLANDS AND PEE DEE...

CITY           SKY/WX    TMP DP  RH WIND       PRES   REMARKS
GEORGETOWN     CLOUDY    70  64  83 E16       30.07R
KINGSTREE      FAIR      77  64  65 E13G22    30.02R
ORANGEBURG     MOSUNNY   84  62  47 S15       29.99R
BARNWELL       FAIR      88  61  40 SE17      29.98R
AIKEN          FAIR      84  61  45 SE14      30.00R
MANNING        NOT AVBL
COLUMBIA       PTSUNNY   88  60  38 S13G20    29.96R
SUMTER         PTSUNNY   83  65  53 SE9       29.97R
FLORENCE       PTSUNNY   80  65  59 SE13G21   30.03S
MYRTLE BEACH   PTSUNNY   72  59  64 E16       30.09S
N MYRTLE BEACH CLOUDY    72  62  71 E12       30.08S

$$

GAZ063-065-086>088-099>101-113>116-118-119-134>141-150-302300-
...SOUTHEAST GEORGIA...

CITY           SKY/WX    TMP DP  RH WIND       PRES   REMARKS
SAVANNAH ARPT  CLOUDY    82  67  60 SE16      29.98S
HUNTER AAF     CLOUDY    79  72  78 SE12      29.96S
FORT STEWART   CLOUDY    81  68  65 SE10      29.96R
STATESBORO     SUNNY     88  66  47 SE12G17   29.97R HX  90
SYLVANIA       PTCLDY    85  63  46 SE9       29.99R
CLAXTON        FAIR      85  66  52 E12G20    29.96R

...CSRA...CENTRAL AND FAR SOUTHEAST GEORGIA...

CITY           SKY/WX    TMP DP  RH WIND       PRES   REMARKS
THOMSON        CLOUDY    87  63  44 SE7       29.98S
AUGUSTA-BUSH   MOSUNNY   85  61  44 SE9       29.94R
AUGUSTA-DANIEL CLOUDY    86  62  44 SE9       29.96R
SWAINSBORO     FAIR      88  55  33 SE10G17   29.95R
VIDALIA        CLOUDY    88  54  31 S8G20     29.95R
EASTMAN        FAIR      69  69 100 CALM      29.96F THUNDER
HAZLEHURST     FAIR      88  54  31 SE5       29.92S
ALMA           CLOUDY    87  58  37 SE10      29.92R
WAYCROSS       CLOUDY    86  66  50 SE10G18   29.92S
JESUP          FAIR      86  68  54 S10       29.95S
BAXLEY         FAIR      86  63  45 SE8G16    29.93R
BRUNSWICK      CLOUDY    84  72  65 E12       29.98S
SAINT SIMONS   MOSUNNY   78  72  81 E13       29.97R

$$

SCZ027-028-034-036>038-045-046-048>050-GAZ119-141-302300-
...LAKE AND SUPPLEMENTAL COASTAL OBSERVATIONS...

STATION/POSITION TIME  TEMP    WIND        PRES    WAVE   SWELL
                       AIR SEA DIR/SP/G            HT/PER HT/PER/DIR
                 (UTC) (F)     (DEG/KT/KT) (MB)    (FT/S) (FT/S/D)
WINYAH BAY       NOT AVBL
LAKE MURRAY      2100   83     150/ 12/ 17 1013.5F
ACE BASIN NERRS  NOT AVBL
FORT PULASKI     2100   75 73   70/ 11/ 13 1015.9F
SAPELO ISLAND    2100   81     100/  9     1015.0S

$$

ANZ835-935-AMZ111-154-330-350-352-354-370-450-454-472-302300-
...C-MAN AND BUOY OBSERVATIONS...

STATION/POSITION TIME  TEMP    WIND        PRES    WAVE   SWELL
                       AIR SEA DIR/SP/G            HT/PER HT/PER/DIR
                 (UTC) (F)     (DEG/KT/KT) (MB)    (FT/S) (FT/S/D)
BUOY 41004       2150   75 74  100/ 12/ 14 1016.3R   3/10   2/10
BUOY 41008       NOT AVBL
FOLLY BEACH CMAN 2100   74      90/  8/  9 1016.9F
CAPERS NEARSHORE 2108   74 72  120/  8/ 10 1016.5F
FRIPP NEARSHORE  2108   76 75  120/  8/ 12 1015.4F


STATION/POSITION TIME  TEMP    WIND        PRES    WAVE   SWELL
                       AIR SEA DIR/SP/G            HT/PER HT/PER/DIR
                 (UTC) (F)     (DEG/KT/KT) (MB)    (FT/S) (FT/S/D)
5E ST. MARYS GA  2121      75                N/A     2/10
FRYING PAN BUOY  2100   69 70   60/ 19/ 23 1018.0F
BUOY 41025       2150   59 73   30/ 19/ 21 1020.2F   5/ 9   3/ 60/ 9
CAPE LOOKOUT NC  2100   63      50/ 17/ 19 1019.7R
BUOY 41002       2150   71      70/ 10/ 12 1018.1R   5/10   5/ 30/10
BUOY 41010       2120   77 78  140/  4/  6 1015.9R
ST AUGUSTINE FL  2200   75 75  150/ 12/ 13 1015.2S


$$




USA.gov is the U.S. government's official web portal to all federal, state and local government web resources and services.